Ames, IA

6:00 PM CDT on June 25, 2017 (GMT -0500)
Ames Municipal

Weather History for KAMW - January, 2014

Change the Weather History Date:

Tuesday, January 7, 2014

  Actual Average Record
Temperature  
Mean Temperature 1 °F 20 °F  
Max Temperature 12 °F 28 °F 60 °F (2003)
Min Temperature -10 °F 11 °F -15 °F (2015)
Degree Days  
Heating Degree Days 64 46  
Month to date heating degree days 433 316  
Since 1 July heating degree days 3296 3070  
Cooling Degree Days 0 0  
Month to date cooling degree days 0 0  
Year to date cooling degree days 0 0  
Moisture  
Dew Point -5 °F    
Average Humidity 72    
Maximum Humidity 80    
Minimum Humidity 63    
Precipitation  
Precipitation 0.00 in 0.02 in 0.27 in (2016)
Month to date precipitation T 0.10  
Sea Level Pressure  
Sea Level Pressure 30.26 in    
Wind  
Wind Speed 4 mph (SE)    
Max Wind Speed 10 mph    
Max Gust Speed 12 mph    
Visibility 10 miles    
Events      
T = Trace of Precipitation, MM = Missing Value Source: NWS Daily Summary

Daily Weather History Graph

Daily Weather History Graph

Search for Another Location

Airport or City:

Trip Planner

Search our weather history database for the weather conditions in past years. The results will help you decide how hot, cold, wet, or windy it might be!

Date:

Astronomy

Jan. 07, 2014 Rise Set
Actual Time 7:42 AM CST 4:59 PM CST
Civil Twilight 7:11 AM CST 5:30 PM CST
Nautical Twilight 6:36 AM CST 6:05 PM CST
Astronomical Twilight 6:02 AM CST 6:39 PM CST
Moon 11:23 AM CST (1/7) No Moon Set
Length of Visible Light 10h 19m
Length of Day
9h 17m
Waxing Crescent, 46% of the Moon is Illuminated
Jan 7
Waxing Crescent
Jan 7
First Quarter
Jan 15
Full
Jan 23
Last Quarter
Jan 30
New

Hourly Weather History & Observations

Time (CST) Temp. Windchill Dew Point Humidity Pressure Visibility Wind Dir Wind Speed Gust Speed Precip Events Conditions
12:53 AM -9.0 °F -26.4 °F -15.0 °F 75% 30.37 in 10.0 mi WSW 9.2 mph - N/A   Clear
1:53 AM -9.0 °F -20.4 °F -15.0 °F 75% 30.34 in 10.0 mi WSW 4.6 mph - N/A   Mostly Cloudy
2:53 AM -5.1 °F -20.4 °F -11.9 °F 72% 30.34 in 10.0 mi WSW 8.1 mph - N/A   Scattered Clouds
3:53 AM -5.1 °F - -13.0 °F 69% 30.31 in 10.0 mi Calm Calm - N/A   Partly Cloudy
4:53 AM -8.0 °F -19.2 °F -13.0 °F 79% 30.29 in 10.0 mi South 4.6 mph - N/A   Mostly Cloudy
5:53 AM -5.1 °F - -11.0 °F 76% 30.29 in 10.0 mi Calm Calm - N/A   Scattered Clouds
6:53 AM -4.0 °F -12.4 °F -9.9 °F 76% 30.27 in 10.0 mi SE 3.5 mph - N/A   Mostly Cloudy
7:53 AM -4.0 °F -16.3 °F -9.0 °F 79% 30.25 in 10.0 mi SE 5.8 mph - N/A   Mostly Cloudy
8:53 AM -2.0 °F -12.2 °F -8.0 °F 76% 30.25 in 10.0 mi SE 4.6 mph - N/A   Clear
9:53 AM -0.0 °F -13.0 °F -7.1 °F 72% 30.23 in 10.0 mi ESE 6.9 mph - N/A   Overcast
10:53 AM 3.9 °F -8.2 °F -4.0 °F 70% 30.22 in 10.0 mi East 6.9 mph - N/A   Overcast
11:53 AM 6.1 °F -4.3 °F -2.9 °F 67% 30.19 in 10.0 mi SE 5.8 mph - N/A   Overcast
12:53 PM 8.1 °F -3.2 °F -0.9 °F 67% 30.15 in 10.0 mi SE 6.9 mph - N/A   Overcast
1:53 PM 10.0 °F - 1.0 °F 67% 30.16 in 10.0 mi Calm Calm - N/A   Overcast
2:53 PM 10.9 °F 4.7 °F 1.0 °F 64% 30.18 in 10.0 mi SE 3.5 mph - N/A   Clear
3:53 PM 10.9 °F - -0.0 °F 61% 30.19 in 10.0 mi Calm Calm - N/A   Clear
4:53 PM 10.0 °F 3.6 °F -0.0 °F 64% 30.22 in 10.0 mi East 3.5 mph - N/A   Clear
5:53 PM 7.0 °F - -0.9 °F 70% 30.25 in 10.0 mi Calm Calm - N/A   Mostly Cloudy
6:53 PM 7.0 °F -3.3 °F -0.0 °F 73% 30.26 in 10.0 mi NE 5.8 mph - N/A   Mostly Cloudy
7:53 PM 7.0 °F 0.1 °F -0.0 °F 73% 30.28 in 10.0 mi ENE 3.5 mph - N/A   Overcast
8:53 PM 7.0 °F -1.7 °F -0.0 °F 73% 30.29 in 10.0 mi East 4.6 mph - N/A   Overcast
9:53 PM 6.1 °F - -0.0 °F 76% 30.30 in 10.0 mi Calm Calm - N/A   Overcast
10:53 PM 6.1 °F - 1.0 °F 80% 30.31 in 10.0 mi Calm Calm - N/A   Overcast
11:53 PM 6.1 °F - 1.0 °F 80% 30.31 in 10.0 mi Calm Calm - N/A   Overcast